PKCYA WIHH-WIHH

Flight info

Callsign PKCYA
Flight time 0h 21m
Altitude 1000
Route CIRCUIT LEFT
Aircraft C172/L-V/N

Departure

Time 2026-04-18 00:22
Airport Halim Perdanakusuma International Airport (WIHH)

Arrival

Time 2026-04-18 00:43
Airport Halim Perdanakusuma International Airport (WIHH)
Time Latitude Longitude Altitude Speed Heading
2026-04-18 00:11 -6.25971 106.89893 87 ft 0 kts 72°
2026-04-18 00:18 -6.25967 106.89906 88 ft 7 kts 71°
2026-04-18 00:18 -6.26017 106.89951 88 ft 17 kts 166°
2026-04-18 00:19 -6.26167 106.89985 89 ft 22 kts 171°
2026-04-18 00:19 -6.26242 106.90000 89 ft 6 kts 192°
2026-04-18 00:19 -6.26258 106.89987 90 ft 0 kts 242°
2026-04-18 00:20 -6.26272 106.89954 91 ft 16 kts 244°
2026-04-18 00:20 -6.26359 106.89767 89 ft 43 kts 244°
2026-04-18 00:20 -6.26520 106.89405 87 ft 69 kts 246°
2026-04-18 00:21 -6.26760 106.88925 123 ft 80 kts 235°
2026-04-18 00:21 -6.27039 106.88434 257 ft 83 kts 239°
2026-04-18 00:21 -6.27357 106.87941 387 ft 90 kts 238°
2026-04-18 00:21 -6.27653 106.87407 611 ft 85 kts 236°
2026-04-18 00:22 -6.27913 106.86798 627 ft 105 kts 256°
2026-04-18 00:22 -6.28060 106.86117 845 ft 94 kts 265°
2026-04-18 00:22 -6.28141 106.85419 920 ft 103 kts 250°
2026-04-18 00:22 -6.28475 106.84704 986 ft 112 kts 241°
2026-04-18 00:23 -6.28958 106.84109 1109 ft 115 kts 214°
2026-04-18 00:23 -6.29725 106.83910 1092 ft 122 kts 171°
2026-04-18 00:23 -6.30521 106.84217 1153 ft 116 kts 151°
2026-04-18 00:23 -6.31218 106.84620 1107 ft 121 kts 148°
2026-04-18 00:24 -6.31966 106.85033 987 ft 125 kts 155°
2026-04-18 00:24 -6.32621 106.85572 949 ft 123 kts 120°
2026-04-18 00:24 -6.32772 106.86412 877 ft 120 kts 92°
2026-04-18 00:24 -6.32571 106.87249 676 ft 127 kts 67°
2026-04-18 00:25 -6.32244 106.87977 836 ft 108 kts 68°
2026-04-18 00:25 -6.31920 106.88679 809 ft 111 kts 69°
2026-04-18 00:25 -6.31617 106.89353 955 ft 102 kts 65°
2026-04-18 00:25 -6.31311 106.90011 968 ft 103 kts 73°
2026-04-18 00:26 -6.31063 106.90694 929 ft 110 kts 68°
2026-04-18 00:26 -6.30731 106.91367 928 ft 108 kts 67°
2026-04-18 00:26 -6.30418 106.92070 882 ft 110 kts 68°
2026-04-18 00:26 -6.30066 106.92757 842 ft 112 kts 61°
2026-04-18 00:27 -6.29646 106.93368 955 ft 100 kts 54°
2026-04-18 00:27 -6.29201 106.93934 947 ft 106 kts 56°
2026-04-18 00:27 -6.28750 106.94532 955 ft 109 kts 61°
2026-04-18 00:27 -6.28405 106.95241 928 ft 113 kts 66°
2026-04-18 00:28 -6.28031 106.95934 924 ft 114 kts 60°
2026-04-18 00:28 -6.27625 106.96593 954 ft 110 kts 64°
2026-04-18 00:28 -6.27293 106.97284 907 ft 112 kts 65°
2026-04-18 00:28 -6.26762 106.97856 840 ft 115 kts 35°
2026-04-18 00:29 -6.25994 106.98049 793 ft 119 kts 355°
2026-04-18 00:29 -6.25211 106.97749 766 ft 118 kts 342°
2026-04-18 00:29 -6.24441 106.97468 668 ft 119 kts 344°
2026-04-18 00:29 -6.23660 106.97208 671 ft 116 kts 345°
2026-04-18 00:30 -6.22997 106.96832 819 ft 110 kts 310°
2026-04-18 00:30 -6.22867 106.96043 768 ft 122 kts 261°
2026-04-18 00:30 -6.23154 106.95283 745 ft 122 kts 245°
2026-04-18 00:30 -6.23502 106.94476 707 ft 119 kts 250°
2026-04-18 00:31 -6.23861 106.93782 743 ft 111 kts 242°
2026-04-18 00:31 -6.24198 106.93102 649 ft 107 kts 244°
2026-04-18 00:31 -6.24546 106.92548 657 ft 94 kts 232°
2026-04-18 00:31 -6.24901 106.92033 639 ft 91 kts 237°
2026-04-18 00:32 -6.25247 106.91519 568 ft 92 kts 234°
2026-04-18 00:32 -6.25629 106.91025 556 ft 86 kts 226°
2026-04-18 00:32 -6.26007 106.90530 330 ft 97 kts 239°
2026-04-18 00:32 -6.26295 106.89914 102 ft 94 kts 247°
2026-04-18 00:33 -6.26534 106.89387 88 ft 72 kts 246°
2026-04-18 00:33 -6.26722 106.88976 88 ft 59 kts 244°
2026-04-18 00:33 -6.26896 106.88594 85 ft 65 kts 246°
2026-04-18 00:33 -6.27113 106.88115 96 ft 84 kts 243°
2026-04-18 00:34 -6.27376 106.87556 129 ft 93 kts 244°
2026-04-18 00:34 -6.27675 106.87012 258 ft 92 kts 234°
2026-04-18 00:34 -6.28057 106.86452 312 ft 108 kts 241°
2026-04-18 00:34 -6.28408 106.85809 559 ft 99 kts 241°
2026-04-18 00:35 -6.28937 106.85373 663 ft 108 kts 193°
2026-04-18 00:35 -6.29631 106.85496 897 ft 98 kts 152°
2026-04-18 00:35 -6.30199 106.85857 1103 ft 97 kts 137°
2026-04-18 00:35 -6.30812 106.86293 1086 ft 115 kts 150°
2026-04-18 00:36 -6.31448 106.86734 1228 ft 111 kts 136°
2026-04-18 00:36 -6.32022 106.87278 1282 ft 116 kts 135°
2026-04-18 00:36 -6.32594 106.87911 1206 ft 120 kts 128°
2026-04-18 00:36 -6.32895 106.88660 1070 ft 120 kts 99°
2026-04-18 00:37 -6.32777 106.89485 929 ft 121 kts 63°
2026-04-18 00:37 -6.32425 106.90229 927 ft 112 kts 66°
2026-04-18 00:37 -6.32020 106.90917 739 ft 120 kts 56°
2026-04-18 00:37 -6.31562 106.91576 769 ft 105 kts 61°
2026-04-18 00:38 -6.31166 106.92190 774 ft 109 kts 62°
2026-04-18 00:38 -6.30839 106.92836 827 ft 105 kts 63°
2026-04-18 00:38 -6.30470 106.93447 981 ft 100 kts 59°
2026-04-18 00:38 -6.30083 106.94053 1006 ft 107 kts 64°
2026-04-18 00:39 -6.29787 106.94738 1108 ft 105 kts 70°
2026-04-18 00:39 -6.29490 106.95402 1220 ft 105 kts 66°
2026-04-18 00:39 -6.29257 106.95844 1224 ft 111 kts 64°
2026-04-18 00:39 -6.28806 106.96495 1234 ft 117 kts 45°
2026-04-18 00:40 -6.27745 106.96673 1095 ft 129 kts 333°
2026-04-18 00:40 -6.27197 106.96496 1074 ft 122 kts 354°
2026-04-18 00:40 -6.26337 106.96359 980 ft 123 kts 354°
2026-04-18 00:40 -6.25494 106.96141 809 ft 132 kts 344°
2026-04-18 00:41 -6.24680 106.95812 792 ft 117 kts 347°
2026-04-18 00:41 -6.23901 106.95661 667 ft 120 kts 344°
2026-04-18 00:41 -6.23424 106.95006 491 ft 127 kts 269°
2026-04-18 00:41 -6.23717 106.94230 466 ft 114 kts 237°
2026-04-18 00:42 -6.24035 106.93503 470 ft 103 kts 245°
2026-04-18 00:42 -6.24340 106.92855 356 ft 104 kts 244°
2026-04-18 00:42 -6.24620 106.92248 352 ft 85 kts 241°
2026-04-18 00:42 -6.24836 106.91725 245 ft 78 kts 245°
2026-04-18 00:43 -6.25130 106.91332 191 ft 67 kts 218°
2026-04-18 00:43 -6.25476 106.91044 147 ft 62 kts 206°
2026-04-18 00:43 -6.25673 106.90850 137 ft 0 kts 226°